Wetterdaten: Freitag, 21.08.2015
Datum Zeit Auen-Temp. Temp gefhlt Luftfeuchte Luftdruck Regen Wind Richtung Richtung Taupunkt Windben
21.08.2015 00:00 8,6 C 8,5 C 90 % 1018,2 hPa 0,0 mm 0,0 km/h (0 Bft) W-NW 292 7,1 C 2,6 km/h (1 Bft)
21.08.2015 00:05 8,6 C 8,5 C 90 % 1018,2 hPa 0,0 mm 0,0 km/h (0 Bft) W-SW 247 7,1 C 0,0 km/h (0 Bft)
21.08.2015 00:10 8,7 C 8,5 C 90 % 1018,2 hPa 0,0 mm 0,0 km/h (0 Bft) SW 225 7,2 C 0,0 km/h (0 Bft)
21.08.2015 00:15 8,6 C 8,5 C 90 % 1018,1 hPa 0,0 mm 0,0 km/h (0 Bft) SW 225 7,1 C 0,0 km/h (0 Bft)
21.08.2015 00:20 8,8 C 8,6 C 90 % 1018,1 hPa 0,0 mm 0,0 km/h (0 Bft) S-SW 202 7,3 C 0,0 km/h (0 Bft)
21.08.2015 00:25 8,6 C 8,5 C 90 % 1018,1 hPa 0,0 mm 0,0 km/h (0 Bft) SW 225 7,1 C 0,0 km/h (0 Bft)
21.08.2015 00:30 8,2 C 8,2 C 90 % 1018,1 hPa 0,0 mm 0,0 km/h (0 Bft) SW 225 6,7 C 0,0 km/h (0 Bft)
21.08.2015 00:35 8,2 C 8,1 C 90 % 1018,1 hPa 0,0 mm 0,0 km/h (0 Bft) N-NW 337 6,7 C 0,0 km/h (0 Bft)
21.08.2015 00:40 8,2 C 8,1 C 90 % 1018,1 hPa 0,0 mm 0,0 km/h (0 Bft) NW 315 6,7 C 0,0 km/h (0 Bft)
21.08.2015 00:45 8,3 C 8,1 C 90 % 1018,1 hPa 0,0 mm 0,0 km/h (0 Bft) N-NO 22 6,8 C 0,0 km/h (0 Bft)
21.08.2015 00:50 8,2 C 8,1 C 90 % 1018,1 hPa 0,0 mm 0,0 km/h (0 Bft) N-NO 22 6,7 C 0,0 km/h (0 Bft)
21.08.2015 00:55 8,5 C 8,3 C 91 % 1018,1 hPa 0,0 mm 0,0 km/h (0 Bft) S-SW 202 7,1 C 0,0 km/h (0 Bft)
21.08.2015 01:00 8,5 C 8,3 C 91 % 1018,1 hPa 0,0 mm 0,0 km/h (0 Bft) S-SW 202 7,1 C 0,0 km/h (0 Bft)
21.08.2015 01:05 8,4 C 8,2 C 91 % 1018,1 hPa 0,0 mm 0,0 km/h (0 Bft) S 180 7,0 C 0,0 km/h (0 Bft)
21.08.2015 01:10 8,4 C 8,2 C 91 % 1018,1 hPa 0,0 mm 0,0 km/h (0 Bft) S-SW 202 7,0 C 0,0 km/h (0 Bft)
21.08.2015 01:15 8,2 C 8,1 C 91 % 1018,2 hPa 0,0 mm 0,0 km/h (0 Bft) W-SW 247 6,8 C 0,0 km/h (0 Bft)
21.08.2015 01:20 8,2 C 8,1 C 91 % 1018,2 hPa 0,0 mm 0,0 km/h (0 Bft) S 180 6,8 C 0,0 km/h (0 Bft)
21.08.2015 01:25 8,4 C 8,2 C 91 % 1018,2 hPa 0,0 mm 0,0 km/h (0 Bft) S 180 7,0 C 0,0 km/h (0 Bft)
21.08.2015 01:30 8,2 C 8,1 C 91 % 1018,2 hPa 0,0 mm 0,0 km/h (0 Bft) SW 225 6,8 C 0,0 km/h (0 Bft)
21.08.2015 01:35 8,2 C 8,1 C 91 % 1017,9 hPa 0,0 mm 0,0 km/h (0 Bft) W-SW 247 6,8 C 0,0 km/h (0 Bft)
21.08.2015 01:40 8,2 C 8,1 C 91 % 1017,9 hPa 0,0 mm 0,0 km/h (0 Bft) W-NW 292 6,8 C 0,0 km/h (0 Bft)
21.08.2015 01:45 8,1 C 8,0 C 91 % 1017,9 hPa 0,0 mm 0,0 km/h (0 Bft) W-NW 292 6,7 C 0,0 km/h (0 Bft)
21.08.2015 01:50 8,1 C 8,0 C 91 % 1017,9 hPa 0,0 mm 0,0 km/h (0 Bft) SW 225 6,7 C 0,0 km/h (0 Bft)
21.08.2015 01:55 8,1 C 7,9 C 91 % 1018,0 hPa 0,0 mm 0,0 km/h (0 Bft) SW 225 6,7 C 0,0 km/h (0 Bft)
21.08.2015 02:00 8,3 C 8,1 C 91 % 1018,0 hPa 0,0 mm 0,0 km/h (0 Bft) SW 225 6,9 C 0,0 km/h (0 Bft)
21.08.2015 02:05 8,4 C 8,2 C 91 % 1018,0 hPa 0,0 mm 0,0 km/h (0 Bft) SW 225 7,0 C 0,0 km/h (0 Bft)
21.08.2015 02:10 8,2 C 8,1 C 91 % 1018,0 hPa 0,0 mm 0,0 km/h (0 Bft) SW 225 6,8 C 0,0 km/h (0 Bft)
21.08.2015 02:15 7,9 C 7,9 C 92 % 1018,0 hPa 0,0 mm 0,0 km/h (0 Bft) SW 225 6,7 C 0,0 km/h (0 Bft)
21.08.2015 02:20 8,0 C 7,9 C 91 % 1018,0 hPa 0,0 mm 0,0 km/h (0 Bft) SW 225 6,6 C 0,0 km/h (0 Bft)
21.08.2015 02:25 7,9 C 7,8 C 92 % 1018,0 hPa 0,0 mm 0,0 km/h (0 Bft) SW 225 6,7 C 0,0 km/h (0 Bft)
21.08.2015 02:30 7,7 C 7,6 C 92 % 1018,0 hPa 0,0 mm 0,0 km/h (0 Bft) SW 225 6,5 C 0,0 km/h (0 Bft)
21.08.2015 02:35 7,7 C 7,6 C 92 % 1017,9 hPa 0,0 mm 0,0 km/h (0 Bft) SW 225 6,5 C 0,0 km/h (0 Bft)
21.08.2015 02:40 7,6 C 7,5 C 92 % 1017,9 hPa 0,0 mm 0,0 km/h (0 Bft) SW 225 6,4 C 0,0 km/h (0 Bft)
21.08.2015 02:45 7,5 C 7,3 C 92 % 1017,9 hPa 0,0 mm 0,0 km/h (0 Bft) SW 225 6,3 C 0,0 km/h (0 Bft)
21.08.2015 02:50 7,3 C 7,2 C 92 % 1017,9 hPa 0,0 mm 0,0 km/h (0 Bft) W-NW 292 6,1 C 0,0 km/h (0 Bft)
21.08.2015 02:55 7,2 C 7,1 C 92 % 1017,6 hPa 0,0 mm 0,0 km/h (0 Bft) W-NW 292 6,0 C 0,0 km/h (0 Bft)
21.08.2015 03:00 7,2 C 7,1 C 92 % 1017,6 hPa 0,0 mm 0,0 km/h (0 Bft) W-SW 247 6,0 C 0,0 km/h (0 Bft)
21.08.2015 03:05 7,5 C 7,2 C 92 % 1017,6 hPa 0,0 mm 0,0 km/h (0 Bft) NO 45 6,3 C 0,0 km/h (0 Bft)
21.08.2015 03:10 7,5 C 7,3 C 92 % 1017,6 hPa 0,0 mm 0,0 km/h (0 Bft) O-NO 67 6,3 C 0,0 km/h (0 Bft)
21.08.2015 03:15 7,6 C 7,4 C 92 % 1017,6 hPa 0,0 mm 0,0 km/h (0 Bft) O 90 6,4 C 0,0 km/h (0 Bft)
21.08.2015 03:20 7,7 C 7,5 C 92 % 1017,6 hPa 0,0 mm 0,0 km/h (0 Bft) O 90 6,5 C 0,0 km/h (0 Bft)
21.08.2015 03:25 7,8 C 7,6 C 89 % 1017,6 hPa 0,0 mm 0,0 km/h (0 Bft) O-NO 67 6,1 C 0,0 km/h (0 Bft)
21.08.2015 03:30 7,8 C 7,6 C 92 % 1017,6 hPa 0,0 mm 0,0 km/h (0 Bft) O-SO 112 6,6 C 0,0 km/h (0 Bft)
21.08.2015 03:35 7,8 C 7,5 C 92 % 1017,5 hPa 0,0 mm 0,0 km/h (0 Bft) O-SO 112 6,6 C 0,0 km/h (0 Bft)
21.08.2015 03:40 7,3 C 7,2 C 92 % 1017,5 hPa 0,0 mm 0,0 km/h (0 Bft) NO 45 6,1 C 0,0 km/h (0 Bft)
21.08.2015 03:45 7,1 C 7,0 C 92 % 1017,5 hPa 0,0 mm 0,0 km/h (0 Bft) NO 45 5,9 C 0,0 km/h (0 Bft)
21.08.2015 03:50 7,2 C 7,0 C 92 % 1017,5 hPa 0,0 mm 0,0 km/h (0 Bft) O 90 6,0 C 0,0 km/h (0 Bft)
21.08.2015 03:55 7,4 C 7,2 C 89 % 1017,4 hPa 0,0 mm 0,0 km/h (0 Bft) O 90 5,7 C 0,0 km/h (0 Bft)
21.08.2015 04:00 7,5 C 7,3 C 92 % 1017,4 hPa 0,0 mm 0,0 km/h (0 Bft) O-SO 112 6,3 C 0,0 km/h (0 Bft)
21.08.2015 04:05 7,6 C 7,3 C 93 % 1017,4 hPa 0,0 mm 0,0 km/h (0 Bft) SO 135 6,5 C 0,0 km/h (0 Bft)
21.08.2015 04:10 7,3 C 7,1 C 93 % 1017,4 hPa 0,0 mm 0,0 km/h (0 Bft) SO 135 6,2 C 0,0 km/h (0 Bft)
21.08.2015 04:15 7,0 C 6,9 C 92 % 1017,4 hPa 0,0 mm 0,0 km/h (0 Bft) NO 45 5,8 C 0,0 km/h (0 Bft)
21.08.2015 04:20 7,0 C 6,9 C 92 % 1017,4 hPa 0,0 mm 0,0 km/h (0 Bft) O-NO 67 5,8 C 0,0 km/h (0 Bft)
21.08.2015 04:25 6,8 C 6,7 C 93 % 1017,4 hPa 0,0 mm 0,0 km/h (0 Bft) NO 45 5,7 C 0,0 km/h (0 Bft)
21.08.2015 04:30 6,6 C 6,5 C 93 % 1017,4 hPa 0,0 mm 0,0 km/h (0 Bft) NO 45 5,6 C 0,0 km/h (0 Bft)
21.08.2015 04:35 6,7 C 6,5 C 93 % 1017,8 hPa 0,0 mm 0,0 km/h (0 Bft) O-NO 67 5,6 C 0,0 km/h (0 Bft)
21.08.2015 04:40 6,6 C 6,5 C 93 % 1017,8 hPa 0,0 mm 0,0 km/h (0 Bft) O-NO 67 5,6 C 0,0 km/h (0 Bft)
21.08.2015 04:45 6,5 C 6,4 C 93 % 1017,8 hPa 0,0 mm 0,0 km/h (0 Bft) O 90 5,5 C 0,0 km/h (0 Bft)
21.08.2015 04:50 7,0 C 6,7 C 93 % 1017,8 hPa 0,0 mm 0,0 km/h (0 Bft) SO 135 5,9 C 0,0 km/h (0 Bft)
21.08.2015 04:55 7,1 C 6,8 C 93 % 1017,0 hPa 0,0 mm 0,0 km/h (0 Bft) SO 135 6,0 C 0,0 km/h (0 Bft)
21.08.2015 05:00 6,7 C 6,6 C 93 % 1017,0 hPa 0,0 mm 0,0 km/h (0 Bft) S-SO 157 5,6 C 0,0 km/h (0 Bft)
21.08.2015 05:05 6,8 C 6,6 C 93 % 1017,0 hPa 0,0 mm 0,0 km/h (0 Bft) SO 135 5,7 C 0,0 km/h (0 Bft)
21.08.2015 05:10 6,8 C 6,6 C 93 % 1017,0 hPa 0,0 mm 0,0 km/h (0 Bft) O-SO 112 5,7 C 0,0 km/h (0 Bft)
21.08.2015 05:15 7,0 C 6,8 C 93 % 1017,2 hPa 0,0 mm 0,0 km/h (0 Bft) O-SO 112 5,9 C 0,0 km/h (0 Bft)
21.08.2015 05:20 7,2 C 7,0 C 89 % 1017,2 hPa 0,0 mm 0,0 km/h (0 Bft) O-SO 112 5,5 C 0,0 km/h (0 Bft)
21.08.2015 05:25 7,2 C 7,0 C 93 % 1017,2 hPa 0,0 mm 0,0 km/h (0 Bft) SO 135 6,1 C 0,0 km/h (0 Bft)
21.08.2015 05:30 7,3 C 7,1 C 93 % 1017,2 hPa 0,0 mm 0,0 km/h (0 Bft) SO 135 6,2 C 0,0 km/h (0 Bft)
21.08.2015 05:35 7,1 C 7,0 C 93 % 1017,2 hPa 0,0 mm 0,0 km/h (0 Bft) O-NO 67 6,0 C 0,0 km/h (0 Bft)
21.08.2015 05:40 7,0 C 6,9 C 93 % 1017,2 hPa 0,0 mm 0,0 km/h (0 Bft) O-NO 67 5,9 C 0,0 km/h (0 Bft)
21.08.2015 05:45 6,9 C 6,8 C 93 % 1017,2 hPa 0,0 mm 0,0 km/h (0 Bft) O-NO 67 5,8 C 0,0 km/h (0 Bft)
21.08.2015 05:46 6,8 C 6,7 C 93 % 1017,2 hPa 0,0 mm 0,0 km/h (0 Bft) O-NO 67 5,7 C 0,0 km/h (0 Bft)
21.08.2015 05:50 6,8 C 6,7 C 93 % 1017,2 hPa 0,0 mm 0,0 km/h (0 Bft) O-NO 67 5,7 C 0,0 km/h (0 Bft)
21.08.2015 05:55 6,8 C 6,7 C 93 % 1017,2 hPa 0,0 mm 0,0 km/h (0 Bft) O-NO 67 5,7 C 0,0 km/h (0 Bft)
21.08.2015 06:00 6,9 C 6,9 C 89 % 1017,2 hPa 0,0 mm 0,0 km/h (0 Bft) O-NO 67 5,2 C 0,0 km/h (0 Bft)
21.08.2015 06:05 6,9 C 6,8 C 93 % 1017,2 hPa 0,0 mm 0,0 km/h (0 Bft) O 90 5,8 C 0,0 km/h (0 Bft)
21.08.2015 06:10 6,9 C 6,8 C 93 % 1017,2 hPa 0,0 mm 0,0 km/h (0 Bft) O-SO 112 5,8 C 0,0 km/h (0 Bft)
21.08.2015 06:15 7,0 C 6,9 C 93 % 1017,3 hPa 0,0 mm 0,0 km/h (0 Bft) O-SO 112 5,9 C 0,0 km/h (0 Bft)
21.08.2015 06:20 7,2 C 7,2 C 89 % 1017,3 hPa 0,0 mm 0,0 km/h (0 Bft) O-SO 112 5,5 C 0,0 km/h (0 Bft)
21.08.2015 06:25 7,1 C 7,0 C 93 % 1017,3 hPa 0,0 mm 0,0 km/h (0 Bft) O-NO 67 6,0 C 0,0 km/h (0 Bft)
21.08.2015 06:30 7,2 C 7,1 C 93 % 1017,3 hPa 0,0 mm 0,0 km/h (0 Bft) O-NO 67 6,1 C 0,0 km/h (0 Bft)
21.08.2015 06:35 7,4 C 7,3 C 93 % 1017,4 hPa 0,0 mm 0,0 km/h (0 Bft) O 90 6,3 C 0,0 km/h (0 Bft)
21.08.2015 06:40 7,5 C 7,3 C 93 % 1017,4 hPa 0,0 mm 0,0 km/h (0 Bft) O-SO 112 6,4 C 0,0 km/h (0 Bft)
21.08.2015 06:45 7,5 C 7,5 C 89 % 1017,4 hPa 0,0 mm 0,0 km/h (0 Bft) O 90 5,8 C 0,0 km/h (0 Bft)
21.08.2015 06:50 7,8 C 7,6 C 94 % 1017,4 hPa 0,0 mm 0,0 km/h (0 Bft) O-NO 67 6,9 C 0,0 km/h (0 Bft)
21.08.2015 06:55 7,7 C 7,6 C 94 % 1017,4 hPa 0,0 mm 0,0 km/h (0 Bft) O 90 6,8 C 0,0 km/h (0 Bft)
21.08.2015 07:00 7,9 C 7,8 C 94 % 1017,4 hPa 0,0 mm 0,0 km/h (0 Bft) SO 135 7,0 C 0,0 km/h (0 Bft)
21.08.2015 07:05 7,9 C 7,8 C 94 % 1017,4 hPa 0,0 mm 0,0 km/h (0 Bft) SO 135 7,0 C 0,0 km/h (0 Bft)
21.08.2015 07:10 7,7 C 7,7 C 94 % 1017,4 hPa 0,0 mm 0,0 km/h (0 Bft) SO 135 6,8 C 0,0 km/h (0 Bft)
21.08.2015 07:15 7,7 C 7,7 C 94 % 1017,5 hPa 0,0 mm 0,0 km/h (0 Bft) O-NO 67 6,8 C 0,0 km/h (0 Bft)
21.08.2015 07:20 7,8 C 7,8 C 89 % 1017,5 hPa 0,0 mm 0,0 km/h (0 Bft) SO 135 6,1 C 0,0 km/h (0 Bft)
21.08.2015 07:25 7,9 C 7,9 C 89 % 1017,5 hPa 0,0 mm 0,0 km/h (0 Bft) SO 135 6,2 C 0,0 km/h (0 Bft)
21.08.2015 07:30 8,1 C 8,0 C 94 % 1017,5 hPa 0,0 mm 0,0 km/h (0 Bft) SO 135 7,2 C 0,0 km/h (0 Bft)
21.08.2015 07:35 8,1 C 8,2 C 94 % 1017,6 hPa 0,0 mm 0,0 km/h (0 Bft) SO 135 7,2 C 0,0 km/h (0 Bft)
21.08.2015 07:40 8,2 C 10,2 C 89 % 1017,6 hPa 0,0 mm 0,0 km/h (0 Bft) NO 45 6,5 C 0,0 km/h (0 Bft)
21.08.2015 07:45 8,4 C 11,0 C 94 % 1017,6 hPa 0,0 mm 0,0 km/h (0 Bft) NO 45 7,5 C 0,0 km/h (0 Bft)
21.08.2015 07:50 8,6 C 12,4 C 89 % 1017,6 hPa 0,0 mm 0,0 km/h (0 Bft) O-SO 112 6,9 C 0,0 km/h (0 Bft)
21.08.2015 07:55 9,0 C 13,5 C 93 % 1017,6 hPa 0,0 mm 0,0 km/h (0 Bft) NO 45 7,9 C 0,0 km/h (0 Bft)
21.08.2015 08:00 9,7 C 14,5 C 89 % 1017,6 hPa 0,0 mm 0,0 km/h (0 Bft) SO 135 8,0 C 0,0 km/h (0 Bft)
21.08.2015 08:05 10,0 C 15,9 C 89 % 1017,6 hPa 0,0 mm 0,0 km/h (0 Bft) O-NO 67 8,3 C 0,0 km/h (0 Bft)
21.08.2015 08:10 10,8 C 17,4 C 89 % 1017,6 hPa 0,0 mm 0,0 km/h (0 Bft) O-NO 67 9,1 C 0,0 km/h (0 Bft)
21.08.2015 08:15 10,7 C 18,3 C 89 % 1017,3 hPa 0,0 mm 0,0 km/h (0 Bft) O-NO 67 9,0 C 0,0 km/h (0 Bft)
21.08.2015 08:20 10,7 C 19,6 C 93 % 1017,3 hPa 0,0 mm 0,0 km/h (0 Bft) O-NO 67 9,6 C 0,0 km/h (0 Bft)
21.08.2015 08:25 11,0 C 20,6 C 88 % 1017,3 hPa 0,0 mm 0,0 km/h (0 Bft) O-NO 67 9,1 C 0,0 km/h (0 Bft)
21.08.2015 08:30 11,4 C 22,0 C 88 % 1017,3 hPa 0,0 mm 0,0 km/h (0 Bft) O-NO 67 9,5 C 0,0 km/h (0 Bft)
21.08.2015 08:35 11,5 C 22,7 C 92 % 1017,6 hPa 0,0 mm 0,0 km/h (0 Bft) O-NO 67 10,2 C 0,0 km/h (0 Bft)
21.08.2015 08:40 12,2 C 23,5 C 88 % 1017,6 hPa 0,0 mm 0,0 km/h (0 Bft) O-NO 67 10,3 C 0,0 km/h (0 Bft)
21.08.2015 08:45 12,6 C 24,3 C 88 % 1017,6 hPa 0,0 mm 0,0 km/h (0 Bft) N-NW 337 10,7 C 0,0 km/h (0 Bft)
21.08.2015 08:50 13,2 C 24,0 C 88 % 1017,6 hPa 0,0 mm 0,0 km/h (0 Bft) O-NO 67 11,3 C 0,0 km/h (0 Bft)
21.08.2015 08:55 13,4 C 22,9 C 88 % 1018,2 hPa 0,0 mm 0,0 km/h (0 Bft) NW 315 11,5 C 0,0 km/h (0 Bft)
21.08.2015 09:00 13,3 C 21,2 C 88 % 1018,2 hPa 0,0 mm 0,0 km/h (0 Bft) W-NW 292 11,4 C 0,0 km/h (0 Bft)
21.08.2015 09:05 13,5 C 20,2 C 88 % 1018,2 hPa 0,0 mm 0,0 km/h (0 Bft) N-NO 22 11,6 C 0,0 km/h (0 Bft)
21.08.2015 09:10 13,8 C 20,9 C 88 % 1018,2 hPa 0,0 mm 0,0 km/h (0 Bft) O-NO 67 11,8 C 0,0 km/h (0 Bft)
21.08.2015 09:15 14,2 C 22,2 C 87 % 1018,5 hPa 0,0 mm 0,0 km/h (0 Bft) O 90 12,1 C 0,0 km/h (0 Bft)
21.08.2015 09:20 14,8 C 24,2 C 87 % 1018,5 hPa 0,0 mm 0,0 km/h (0 Bft) O 90 12,7 C 0,0 km/h (0 Bft)
21.08.2015 09:25 14,9 C 24,3 C 87 % 1018,5 hPa 0,0 mm 0,0 km/h (0 Bft) O 90 12,8 C 0,0 km/h (0 Bft)
21.08.2015 09:30 14,7 C 23,1 C 87 % 1018,5 hPa 0,0 mm 0,3 km/h (0 Bft) O 90 12,6 C 3,4 km/h (1 Bft)
21.08.2015 09:35 14,5 C 22,3 C 86 % 1019,0 hPa 0,0 mm 0,3 km/h (0 Bft) O 90 12,2 C 0,0 km/h (0 Bft)
21.08.2015 09:40 14,7 C 21,4 C 86 % 1019,0 hPa 0,0 mm 0,3 km/h (0 Bft) O 90 12,4 C 0,0 km/h (0 Bft)
21.08.2015 09:45 14,9 C 21,6 C 86 % 1019,0 hPa 0,0 mm 0,0 km/h (0 Bft) O-NO 67 12,6 C 0,0 km/h (0 Bft)
21.08.2015 09:50 14,9 C 21,0 C 85 % 1019,0 hPa 0,0 mm 0,0 km/h (0 Bft) NO 45 12,4 C 0,0 km/h (0 Bft)
21.08.2015 09:55 15,0 C 20,4 C 85 % 1018,8 hPa 0,0 mm 0,0 km/h (0 Bft) N-NO 22 12,5 C 0,0 km/h (0 Bft)
21.08.2015 10:00 15,1 C 19,8 C 84 % 1018,8 hPa 0,0 mm 0,0 km/h (0 Bft) NO 45 12,4 C 0,0 km/h (0 Bft)
21.08.2015 10:05 15,1 C 19,4 C 84 % 1018,8 hPa 0,0 mm 0,3 km/h (0 Bft) N 360 12,4 C 4,7 km/h (1 Bft)
21.08.2015 10:10 15,4 C 19,7 C 83 % 1018,8 hPa 0,0 mm 2,3 km/h (1 Bft) N-NO 22 12,5 C 8,0 km/h (2 Bft)
21.08.2015 10:15 15,6 C 20,9 C 83 % 1018,8 hPa 0,0 mm 3,1 km/h (1 Bft) N 360 12,7 C 6,0 km/h (2 Bft)
21.08.2015 10:20 15,8 C 20,9 C 83 % 1018,8 hPa 0,0 mm 3,4 km/h (1 Bft) NO 45 12,9 C 9,6 km/h (2 Bft)
21.08.2015 10:25 15,4 C 19,9 C 83 % 1018,8 hPa 0,0 mm 3,4 km/h (1 Bft) O-NO 67 12,5 C 2,6 km/h (1 Bft)
21.08.2015 10:30 15,0 C 19,1 C 82 % 1018,8 hPa 0,0 mm 2,3 km/h (1 Bft) SO 135 12,0 C 0,0 km/h (0 Bft)
21.08.2015 10:35 14,9 C 18,8 C 83 % 1018,9 hPa 0,0 mm 1,0 km/h (0 Bft) O-SO 112 12,0 C 0,0 km/h (0 Bft)
21.08.2015 10:40 14,9 C 18,4 C 82 % 1018,9 hPa 0,0 mm 1,3 km/h (1 Bft) O-SO 112 11,9 C 3,1 km/h (1 Bft)
21.08.2015 10:45 15,6 C 20,2 C 82 % 1018,9 hPa 0,0 mm 1,8 km/h (1 Bft) SO 135 12,5 C 3,6 km/h (1 Bft)
21.08.2015 10:50 16,2 C 22,4 C 80 % 1018,9 hPa 0,0 mm 1,3 km/h (1 Bft) O-SO 112 12,7 C 0,0 km/h (0 Bft)
21.08.2015 10:55 16,2 C 22,2 C 79 % 1018,9 hPa 0,0 mm 1,0 km/h (0 Bft) O-SO 112 12,6 C 0,0 km/h (0 Bft)
21.08.2015 11:00 16,8 C 23,2 C 79 % 1018,9 hPa 0,0 mm 4,1 km/h (1 Bft) N-NW 337 13,1 C 13,7 km/h (3 Bft)
21.08.2015 11:05 17,2 C 23,8 C 78 % 1018,9 hPa 0,0 mm 4,9 km/h (1 Bft) NO 45 13,3 C 5,7 km/h (1 Bft)
21.08.2015 11:10 17,2 C 24,7 C 77 % 1018,9 hPa 0,0 mm 3,4 km/h (1 Bft) O-NO 67 13,1 C 6,0 km/h (2 Bft)
21.08.2015 11:15 17,2 C 24,3 C 76 % 1019,1 hPa 0,0 mm 3,1 km/h (1 Bft) O 90 12,9 C 3,4 km/h (1 Bft)
21.08.2015 11:20 17,3 C 25,0 C 76 % 1019,1 hPa 0,0 mm 4,1 km/h (1 Bft) O-SO 112 13,0 C 7,0 km/h (2 Bft)
21.08.2015 11:25 17,6 C 25,0 C 75 % 1019,1 hPa 0,0 mm 3,9 km/h (1 Bft) O-NO 67 13,1 C 6,2 km/h (2 Bft)
21.08.2015 11:30 17,4 C 24,5 C 75 % 1019,1 hPa 0,0 mm 4,7 km/h (1 Bft) O-SO 112 12,9 C 3,9 km/h (1 Bft)
21.08.2015 11:35 17,5 C 24,3 C 74 % 1019,2 hPa 0,0 mm 4,7 km/h (1 Bft) SO 135 12,8 C 5,2 km/h (1 Bft)
21.08.2015 11:40 17,8 C 24,1 C 73 % 1019,2 hPa 0,0 mm 4,4 km/h (1 Bft) N-NO 22 12,9 C 15,3 km/h (3 Bft)
21.08.2015 11:45 17,6 C 23,9 C 72 % 1019,2 hPa 0,0 mm 5,2 km/h (1 Bft) O-NO 67 12,5 C 0,0 km/h (0 Bft)
21.08.2015 11:46 17,7 C 23,7 C 71 % 1019,2 hPa 0,0 mm 6,7 km/h (2 Bft) N-NO 22 12,4 C 3,9 km/h (1 Bft)
21.08.2015 11:51 17,9 C 24,1 C 72 % 1019,1 hPa 0,0 mm 4,7 km/h (1 Bft) NW 315 12,8 C 2,8 km/h (1 Bft)
21.08.2015 11:55 17,9 C 24,1 C 72 % 1019,1 hPa 0,0 mm 4,7 km/h (1 Bft) NW 315 12,8 C 2,8 km/h (1 Bft)
21.08.2015 12:00 17,9 C 24,4 C 70 % 1019,1 hPa 0,0 mm 3,9 km/h (1 Bft) O-NO 67 12,3 C 7,0 km/h (2 Bft)
21.08.2015 12:05 18,0 C 24,4 C 70 % 1019,1 hPa 0,0 mm 5,4 km/h (1 Bft) NO 45 12,4 C 8,8 km/h (2 Bft)
21.08.2015 12:10 18,0 C 24,7 C 70 % 1019,1 hPa 0,0 mm 6,0 km/h (2 Bft) O-NO 67 12,4 C 11,9 km/h (2 Bft)
21.08.2015 12:15 17,7 C 23,8 C 70 % 1019,1 hPa 0,0 mm 5,7 km/h (1 Bft) O-SO 112 12,2 C 5,2 km/h (1 Bft)
21.08.2015 12:20 18,0 C 23,7 C 70 % 1019,1 hPa 0,0 mm 5,4 km/h (1 Bft) O-NO 67 12,4 C 5,4 km/h (1 Bft)
21.08.2015 12:25 18,2 C 24,0 C 69 % 1019,1 hPa 0,0 mm 4,7 km/h (1 Bft) O-NO 67 12,4 C 4,4 km/h (1 Bft)
21.08.2015 12:30 18,6 C 24,7 C 70 % 1019,1 hPa 0,0 mm 4,9 km/h (1 Bft) N-NO 22 13,0 C 11,7 km/h (2 Bft)
21.08.2015 12:35 18,5 C 24,4 C 69 % 1019,1 hPa 0,0 mm 5,7 km/h (1 Bft) O 90 12,7 C 3,1 km/h (1 Bft)
21.08.2015 12:40 18,6 C 23,7 C 68 % 1019,1 hPa 0,0 mm 8,3 km/h (2 Bft) N-NO 22 12,6 C 17,1 km/h (3 Bft)
21.08.2015 12:45 18,8 C 23,2 C 68 % 1019,1 hPa 0,0 mm 7,5 km/h (2 Bft) N 360 12,8 C 8,8 km/h (2 Bft)
21.08.2015 12:50 19,0 C 22,4 C 68 % 1019,1 hPa 0,0 mm 6,7 km/h (2 Bft) O-NO 67 13,0 C 3,1 km/h (1 Bft)
21.08.2015 12:55 19,0 C 22,1 C 67 % 1019,0 hPa 0,0 mm 6,2 km/h (2 Bft) S-SO 157 12,7 C 6,0 km/h (2 Bft)
21.08.2015 13:00 18,8 C 22,1 C 66 % 1019,0 hPa 0,0 mm 6,0 km/h (2 Bft) S 180 12,3 C 6,2 km/h (2 Bft)
21.08.2015 13:05 18,9 C 22,5 C 66 % 1019,0 hPa 0,0 mm 5,2 km/h (1 Bft) O-SO 112 12,4 C 3,9 km/h (1 Bft)
21.08.2015 13:10 19,1 C 23,7 C 66 % 1019,0 hPa 0,0 mm 4,7 km/h (1 Bft) SO 135 12,6 C 5,7 km/h (1 Bft)
21.08.2015 13:15 19,0 C 23,8 C 65 % 1018,9 hPa 0,0 mm 4,7 km/h (1 Bft) NO 45 12,3 C 3,4 km/h (1 Bft)
21.08.2015 13:20 19,1 C 24,4 C 64 % 1018,9 hPa 0,0 mm 6,5 km/h (2 Bft) O-SO 112 12,1 C 9,6 km/h (2 Bft)
21.08.2015 13:25 19,5 C 24,6 C 65 % 1018,9 hPa 0,0 mm 7,3 km/h (2 Bft) N-NO 22 12,7 C 9,8 km/h (2 Bft)
21.08.2015 13:30 19,2 C 23,7 C 64 % 1018,9 hPa 0,0 mm 7,8 km/h (2 Bft) O-SO 112 12,2 C 5,4 km/h (1 Bft)
21.08.2015 13:35 18,7 C 22,3 C 65 % 1018,9 hPa 0,0 mm 6,0 km/h (2 Bft) O 90 12,0 C 3,4 km/h (1 Bft)
21.08.2015 13:40 19,2 C 23,8 C 65 % 1018,9 hPa 0,0 mm 3,4 km/h (1 Bft) NO 45 12,5 C 0,0 km/h (0 Bft)
21.08.2015 13:45 19,2 C 24,6 C 64 % 1018,9 hPa 0,0 mm 2,8 km/h (1 Bft) SW 225 12,2 C 3,9 km/h (1 Bft)
21.08.2015 13:50 19,2 C 24,2 C 64 % 1018,9 hPa 0,0 mm 4,1 km/h (1 Bft) N-NW 337 12,2 C 18,4 km/h (3 Bft)
21.08.2015 13:55 19,6 C 24,4 C 62 % 1018,6 hPa 0,0 mm 6,5 km/h (2 Bft) N-NW 337 12,1 C 8,0 km/h (2 Bft)
21.08.2015 14:00 19,8 C 24,6 C 62 % 1018,6 hPa 0,0 mm 9,3 km/h (2 Bft) N-NO 22 12,3 C 7,8 km/h (2 Bft)
21.08.2015 14:05 19,2 C 23,3 C 62 % 1018,6 hPa 0,0 mm 7,5 km/h (2 Bft) N-NW 337 11,7 C 4,1 km/h (1 Bft)
21.08.2015 14:10 19,8 C 24,0 C 63 % 1018,6 hPa 0,0 mm 5,4 km/h (1 Bft) O-NO 67 12,5 C 8,8 km/h (2 Bft)
21.08.2015 14:15 20,3 C 24,7 C 61 % 1018,4 hPa 0,0 mm 5,7 km/h (1 Bft) N-NO 22 12,5 C 15,5 km/h (3 Bft)
21.08.2015 14:20 20,6 C 25,7 C 59 % 1018,4 hPa 0,0 mm 6,7 km/h (2 Bft) N-NW 337 12,3 C 5,2 km/h (1 Bft)
21.08.2015 14:25 20,6 C 26,1 C 59 % 1018,4 hPa 0,0 mm 6,7 km/h (2 Bft) N 360 12,3 C 9,8 km/h (2 Bft)
21.08.2015 14:30 19,8 C 24,4 C 60 % 1018,4 hPa 0,0 mm 6,7 km/h (2 Bft) NO 45 11,8 C 7,5 km/h (2 Bft)
21.08.2015 14:35 19,3 C 23,0 C 61 % 1018,4 hPa 0,0 mm 6,7 km/h (2 Bft) O-NO 67 11,6 C 11,9 km/h (2 Bft)
21.08.2015 14:40 19,0 C 22,3 C 60 % 1018,4 hPa 0,0 mm 7,3 km/h (2 Bft) O-SO 112 11,1 C 6,0 km/h (2 Bft)
21.08.2015 14:45 18,9 C 21,7 C 61 % 1018,4 hPa 0,0 mm 7,5 km/h (2 Bft) NO 45 11,2 C 11,9 km/h (2 Bft)
21.08.2015 14:50 18,8 C 20,7 C 61 % 1018,4 hPa 0,0 mm 6,5 km/h (2 Bft) NO 45 11,1 C 7,8 km/h (2 Bft)
21.08.2015 14:55 18,6 C 20,5 C 61 % 1018,1 hPa 0,0 mm 6,5 km/h (2 Bft) N-NO 22 10,9 C 9,3 km/h (2 Bft)
21.08.2015 15:00 18,8 C 21,2 C 61 % 1018,1 hPa 0,0 mm 4,9 km/h (1 Bft) NO 45 11,1 C 0,0 km/h (0 Bft)
21.08.2015 15:05 19,3 C 22,1 C 59 % 1018,1 hPa 0,0 mm 4,9 km/h (1 Bft) NO 45 11,1 C 5,4 km/h (1 Bft)
21.08.2015 15:10 19,7 C 24,5 C 59 % 1018,1 hPa 0,0 mm 4,4 km/h (1 Bft) O-NO 67 11,5 C 7,8 km/h (2 Bft)
21.08.2015 15:15 20,0 C 25,4 C 59 % 1017,9 hPa 0,0 mm 4,1 km/h (1 Bft) S-SO 157 11,7 C 0,0 km/h (0 Bft)
21.08.2015 15:20 20,7 C 26,7 C 59 % 1017,9 hPa 0,0 mm 3,9 km/h (1 Bft) O-NO 67 12,4 C 6,7 km/h (2 Bft)
21.08.2015 15:25 20,6 C 26,9 C 58 % 1017,9 hPa 0,0 mm 4,4 km/h (1 Bft) N-NO 22 12,0 C 11,9 km/h (2 Bft)
21.08.2015 15:30 20,7 C 26,9 C 58 % 1017,9 hPa 0,0 mm 5,7 km/h (1 Bft) O 90 12,1 C 8,0 km/h (2 Bft)
21.08.2015 15:35 20,7 C 26,6 C 57 % 1017,8 hPa 0,0 mm 7,3 km/h (2 Bft) N-NW 337 11,9 C 11,1 km/h (2 Bft)
21.08.2015 15:40 20,0 C 24,7 C 57 % 1017,8 hPa 0,0 mm 8,3 km/h (2 Bft) NW 315 11,2 C 9,3 km/h (2 Bft)
21.08.2015 15:45 19,6 C 23,1 C 58 % 1017,8 hPa 0,0 mm 7,5 km/h (2 Bft) NW 315 11,1 C 7,0 km/h (2 Bft)
21.08.2015 15:50 19,2 C 21,4 C 58 % 1017,8 hPa 0,0 mm 6,5 km/h (2 Bft) NW 315 10,7 C 4,4 km/h (1 Bft)
21.08.2015 15:55 19,2 C 21,0 C 59 % 1017,7 hPa 0,0 mm 3,9 km/h (1 Bft) NO 45 11,0 C 0,0 km/h (0 Bft)
21.08.2015 16:00 19,1 C 21,0 C 59 % 1017,7 hPa 0,0 mm 2,3 km/h (1 Bft) NO 45 10,9 C 4,9 km/h (1 Bft)
21.08.2015 16:05 18,8 C 20,9 C 60 % 1017,7 hPa 0,0 mm 2,3 km/h (1 Bft) NO 45 10,9 C 0,0 km/h (0 Bft)
21.08.2015 16:10 19,0 C 21,9 C 59 % 1017,7 hPa 0,0 mm 1,8 km/h (1 Bft) NO 45 10,8 C 0,0 km/h (0 Bft)
21.08.2015 16:15 18,6 C 21,8 C 59 % 1017,5 hPa 0,0 mm 1,3 km/h (1 Bft) O-SO 112 10,4 C 3,1 km/h (1 Bft)
21.08.2015 16:20 18,3 C 21,2 C 59 % 1017,5 hPa 0,0 mm 1,8 km/h (1 Bft) S-SO 157 10,1 C 0,0 km/h (0 Bft)
21.08.2015 16:25 18,6 C 22,8 C 60 % 1017,5 hPa 0,0 mm 2,1 km/h (1 Bft) N-NO 22 10,7 C 4,1 km/h (1 Bft)
21.08.2015 16:30 19,1 C 24,7 C 58 % 1017,5 hPa 0,0 mm 3,6 km/h (1 Bft) O-NO 67 10,6 C 0,0 km/h (0 Bft)
21.08.2015 16:35 19,4 C 25,2 C 58 % 1016,8 hPa 0,0 mm 5,4 km/h (1 Bft) O-NO 67 10,9 C 5,4 km/h (1 Bft)
21.08.2015 16:40 19,2 C 24,6 C 57 % 1016,8 hPa 0,0 mm 6,0 km/h (2 Bft) NO 45 10,5 C 5,2 km/h (1 Bft)
21.08.2015 16:45 19,0 C 23,5 C 58 % 1016,8 hPa 0,0 mm 5,4 km/h (1 Bft) O-NO 67 10,5 C 4,9 km/h (1 Bft)
21.08.2015 16:50 18,8 C 21,9 C 59 % 1016,8 hPa 0,7 mm 2,6 km/h (1 Bft) O-SO 112 10,6 C 3,6 km/h (1 Bft)
21.08.2015 16:55 18,6 C 21,2 C 59 % 1017,3 hPa 0,0 mm 2,8 km/h (1 Bft) S-SO 157 10,4 C 3,9 km/h (1 Bft)
21.08.2015 17:00 18,6 C 20,9 C 60 % 1017,3 hPa 0,0 mm 2,6 km/h (1 Bft) N-NO 22 10,7 C 4,1 km/h (1 Bft)
21.08.2015 17:05 18,7 C 20,7 C 59 % 1017,3 hPa 0,0 mm 2,6 km/h (1 Bft) O-SO 112 10,5 C 2,8 km/h (1 Bft)
21.08.2015 17:10 18,6 C 20,5 C 59 % 1017,3 hPa 0,0 mm 2,3 km/h (1 Bft) SO 135 10,4 C 0,0 km/h (0 Bft)
21.08.2015 17:15 18,6 C 20,4 C 59 % 1017,3 hPa 0,0 mm 1,6 km/h (1 Bft) NO 45 10,4 C 0,0 km/h (0 Bft)
21.08.2015 17:20 18,7 C 20,5 C 58 % 1017,3 hPa 0,0 mm 2,3 km/h (1 Bft) NO 45 10,3 C 7,5 km/h (2 Bft)
21.08.2015 17:25 18,7 C 20,3 C 59 % 1017,3 hPa 0,0 mm 3,1 km/h (1 Bft) N-NO 22 10,5 C 6,5 km/h (2 Bft)
21.08.2015 17:30 18,7 C 20,1 C 59 % 1017,3 hPa 0,0 mm 5,2 km/h (1 Bft) NO 45 10,5 C 4,7 km/h (1 Bft)
21.08.2015 17:35 18,8 C 19,9 C 59 % 1017,2 hPa 0,0 mm 5,2 km/h (1 Bft) O-NO 67 10,6 C 0,0 km/h (0 Bft)
21.08.2015 17:40 18,6 C 19,8 C 59 % 1017,2 hPa 0,0 mm 2,8 km/h (1 Bft) O-NO 67 10,4 C 0,0 km/h (0 Bft)
21.08.2015 17:45 18,4 C 19,7 C 60 % 1017,2 hPa 0,0 mm 2,3 km/h (1 Bft) N-NO 22 10,5 C 3,4 km/h (1 Bft)
21.08.2015 17:50 18,4 C 19,7 C 60 % 1017,2 hPa 0,0 mm 3,4 km/h (1 Bft) N-NW 337 10,5 C 7,5 km/h (2 Bft)
21.08.2015 17:51 18,1 C 19,4 C 60 % 1017,3 hPa 0,0 mm 3,6 km/h (1 Bft) O-NO 67 10,2 C 2,8 km/h (1 Bft)
21.08.2015 17:52 18,1 C 19,4 C 60 % 1017,3 hPa 0,0 mm 3,6 km/h (1 Bft) O-NO 67 10,2 C 2,8 km/h (1 Bft)
21.08.2015 17:55 18,1 C 19,4 C 60 % 1017,3 hPa 0,0 mm 3,6 km/h (1 Bft) O-NO 67 10,2 C 2,8 km/h (1 Bft)
21.08.2015 18:00 17,6 C 18,7 C 60 % 1017,3 hPa 0,0 mm 2,6 km/h (1 Bft) O-SO 112 9,7 C 0,0 km/h (0 Bft)
21.08.2015 18:05 17,4 C 18,3 C 61 % 1017,3 hPa 0,0 mm 1,3 km/h (1 Bft) N-NO 22 9,8 C 0,0 km/h (0 Bft)
21.08.2015 18:10 17,1 C 17,7 C 62 % 1017,3 hPa 0,0 mm 1,3 km/h (1 Bft) SO 135 9,8 C 5,2 km/h (1 Bft)
21.08.2015 18:15 16,8 C 17,5 C 62 % 1017,2 hPa 0,0 mm 1,3 km/h (1 Bft) NO 45 9,5 C 5,4 km/h (1 Bft)
21.08.2015 18:20 16,8 C 17,3 C 63 % 1017,2 hPa 0,0 mm 1,0 km/h (0 Bft) NW 315 9,7 C 0,0 km/h (0 Bft)
21.08.2015 18:25 16,8 C 17,1 C 63 % 1017,2 hPa 0,0 mm 0,5 km/h (0 Bft) O-SO 112 9,7 C 4,1 km/h (1 Bft)
21.08.2015 18:30 16,9 C 17,2 C 63 % 1017,2 hPa 0,0 mm 1,3 km/h (1 Bft) SO 135 9,8 C 2,6 km/h (1 Bft)
21.08.2015 18:35 17,0 C 17,3 C 63 % 1017,1 hPa 0,0 mm 1,6 km/h (1 Bft) SO 135 9,9 C 4,9 km/h (1 Bft)
21.08.2015 18:40 17,1 C 17,6 C 63 % 1017,1 hPa 0,0 mm 1,0 km/h (0 Bft) S-SO 157 10,0 C 3,6 km/h (1 Bft)
21.08.2015 18:45 17,2 C 17,8 C 63 % 1017,1 hPa 0,0 mm 1,8 km/h (1 Bft) SO 135 10,1 C 3,1 km/h (1 Bft)
21.08.2015 18:50 17,3 C 18,1 C 63 % 1017,1 hPa 0,0 mm 1,0 km/h (0 Bft) S-SO 157 10,2 C 0,0 km/h (0 Bft)
21.08.2015 18:55 17,4 C 18,1 C 63 % 1016,9 hPa 0,0 mm 0,3 km/h (0 Bft) O-SO 112 10,3 C 0,0 km/h (0 Bft)
21.08.2015 19:00 17,2 C 18,0 C 64 % 1016,9 hPa 0,0 mm 0,0 km/h (0 Bft) O-SO 112 10,3 C 0,0 km/h (0 Bft)
21.08.2015 19:05 17,2 C 17,9 C 65 % 1016,9 hPa 0,0 mm 0,0 km/h (0 Bft) S-SO 157 10,6 C 0,0 km/h (0 Bft)
21.08.2015 19:10 17,1 C 17,7 C 66 % 1016,9 hPa 0,0 mm 0,0 km/h (0 Bft) S-SO 157 10,7 C 0,0 km/h (0 Bft)
21.08.2015 19:15 17,1 C 17,6 C 65 % 1017,0 hPa 0,0 mm 0,0 km/h (0 Bft) S-SO 157 10,5 C 0,0 km/h (0 Bft)
21.08.2015 19:20 17,1 C 17,5 C 66 % 1017,0 hPa 0,0 mm 0,0 km/h (0 Bft) SO 135 10,7 C 0,0 km/h (0 Bft)
21.08.2015 19:25 16,9 C 17,5 C 66 % 1017,0 hPa 0,0 mm 0,0 km/h (0 Bft) S-SO 157 10,5 C 0,0 km/h (0 Bft)
21.08.2015 19:30 16,6 C 17,6 C 67 % 1017,0 hPa 0,0 mm 0,0 km/h (0 Bft) S-SO 157 10,4 C 0,0 km/h (0 Bft)
21.08.2015 19:35 16,6 C 18,2 C 68 % 1017,1 hPa 0,0 mm 0,0 km/h (0 Bft) S-SO 157 10,7 C 0,0 km/h (0 Bft)
21.08.2015 19:40 16,2 C 18,9 C 70 % 1017,1 hPa 0,0 mm 0,0 km/h (0 Bft) S-SO 157 10,7 C 0,0 km/h (0 Bft)
21.08.2015 19:45 16,3 C 19,1 C 69 % 1017,1 hPa 0,0 mm 0,0 km/h (0 Bft) S-SO 157 10,6 C 0,0 km/h (0 Bft)
21.08.2015 19:50 16,0 C 19,0 C 70 % 1017,1 hPa 0,0 mm 1,8 km/h (1 Bft) S 180 10,5 C 4,9 km/h (1 Bft)
21.08.2015 19:55 15,7 C 18,5 C 72 % 1017,1 hPa 0,0 mm 3,6 km/h (1 Bft) S 180 10,7 C 4,1 km/h (1 Bft)
21.08.2015 20:00 15,2 C 17,5 C 74 % 1017,1 hPa 0,0 mm 2,3 km/h (1 Bft) S-SO 157 10,6 C 0,0 km/h (0 Bft)
21.08.2015 20:05 14,9 C 16,9 C 75 % 1017,1 hPa 0,0 mm 1,0 km/h (0 Bft) SO 135 10,5 C 0,0 km/h (0 Bft)
21.08.2015 20:10 14,5 C 15,8 C 75 % 1017,1 hPa 0,0 mm 0,3 km/h (0 Bft) S-SO 157 10,1 C 2,8 km/h (1 Bft)
21.08.2015 20:15 14,6 C 15,5 C 75 % 1017,1 hPa 0,0 mm 0,8 km/h (0 Bft) S-SO 157 10,2 C 0,0 km/h (0 Bft)
21.08.2015 20:20 14,6 C 15,2 C 75 % 1017,1 hPa 0,0 mm 2,3 km/h (1 Bft) S 180 10,2 C 3,6 km/h (1 Bft)
21.08.2015 20:25 14,5 C 15,0 C 75 % 1017,1 hPa 0,0 mm 2,8 km/h (1 Bft) S-SO 157 10,1 C 3,4 km/h (1 Bft)
21.08.2015 20:30 14,4 C 14,7 C 75 % 1017,1 hPa 0,0 mm 3,4 km/h (1 Bft) S-SW 202 10,0 C 3,9 km/h (1 Bft)
21.08.2015 20:35 14,2 C 14,6 C 75 % 1017,1 hPa 0,0 mm 3,4 km/h (1 Bft) S 180 9,8 C 6,2 km/h (2 Bft)
21.08.2015 20:40 13,7 C 14,1 C 76 % 1017,1 hPa 0,0 mm 3,9 km/h (1 Bft) S 180 9,5 C 4,4 km/h (1 Bft)
21.08.2015 20:45 13,5 C 13,9 C 76 % 1017,1 hPa 0,0 mm 2,6 km/h (1 Bft) SO 135 9,4 C 0,0 km/h (0 Bft)
21.08.2015 20:50 13,2 C 13,3 C 77 % 1017,1 hPa 0,0 mm 0,8 km/h (0 Bft) S-SO 157 9,3 C 3,1 km/h (1 Bft)
21.08.2015 20:55 13,2 C 13,3 C 78 % 1017,2 hPa 0,0 mm 0,5 km/h (0 Bft) SO 135 9,4 C 0,0 km/h (0 Bft)
21.08.2015 21:00 13,3 C 13,2 C 78 % 1017,2 hPa 0,0 mm 2,1 km/h (1 Bft) S 180 9,5 C 3,1 km/h (1 Bft)
21.08.2015 21:05 13,1 C 13,0 C 78 % 1017,2 hPa 0,0 mm 3,1 km/h (1 Bft) S 180 9,4 C 6,5 km/h (2 Bft)
21.08.2015 21:10 12,6 C 12,8 C 79 % 1017,2 hPa 0,0 mm 2,6 km/h (1 Bft) S-SO 157 9,1 C 0,0 km/h (0 Bft)
21.08.2015 21:15 12,4 C 12,6 C 79 % 1017,2 hPa 0,0 mm 1,3 km/h (1 Bft) S 180 8,9 C 0,0 km/h (0 Bft)
21.08.2015 21:20 12,2 C 12,3 C 80 % 1017,2 hPa 0,0 mm 0,0 km/h (0 Bft) S-SO 157 8,9 C 0,0 km/h (0 Bft)
21.08.2015 21:25 12,1 C 12,0 C 80 % 1017,2 hPa 0,0 mm 0,0 km/h (0 Bft) S-SO 157 8,8 C 0,0 km/h (0 Bft)
21.08.2015 21:30 11,9 C 11,7 C 81 % 1017,2 hPa 0,0 mm 0,0 km/h (0 Bft) S-SO 157 8,7 C 0,0 km/h (0 Bft)
21.08.2015 21:35 11,6 C 11,4 C 81 % 1017,2 hPa 0,0 mm 0,0 km/h (0 Bft) S-SO 157 8,5 C 0,0 km/h (0 Bft)
21.08.2015 21:40 11,6 C 11,5 C 82 % 1017,2 hPa 0,0 mm 1,6 km/h (1 Bft) S 180 8,6 C 3,6 km/h (1 Bft)
21.08.2015 21:45 11,5 C 11,4 C 82 % 1017,2 hPa 0,0 mm 3,4 km/h (1 Bft) S-SW 202 8,5 C 6,0 km/h (2 Bft)
21.08.2015 21:50 11,4 C 11,3 C 82 % 1017,2 hPa 0,0 mm 2,8 km/h (1 Bft) S 180 8,4 C 0,0 km/h (0 Bft)
21.08.2015 22:00 11,3 C 11,0 C 83 % 1017,2 hPa 0,0 mm 0,0 km/h (0 Bft) SW 225 8,5 C 0,0 km/h (0 Bft)
21.08.2015 22:05 11,1 C 10,9 C 83 % 1017,2 hPa 0,0 mm 0,0 km/h (0 Bft) N-NW 337 8,3 C 0,0 km/h (0 Bft)
21.08.2015 22:10 11,0 C 10,7 C 83 % 1017,2 hPa 0,0 mm 0,0 km/h (0 Bft) NW 315 8,2 C 0,0 km/h (0 Bft)
21.08.2015 22:15 11,0 C 10,7 C 84 % 1016,9 hPa 0,0 mm 0,0 km/h (0 Bft) W 270 8,4 C 0,0 km/h (0 Bft)
21.08.2015 22:20 10,8 C 10,5 C 84 % 1016,9 hPa 0,0 mm 0,0 km/h (0 Bft) W 270 8,2 C 0,0 km/h (0 Bft)
21.08.2015 22:25 10,5 C 10,3 C 84 % 1016,9 hPa 0,0 mm 0,0 km/h (0 Bft) W 270 7,9 C 0,0 km/h (0 Bft)
21.08.2015 22:30 10,5 C 10,2 C 84 % 1016,9 hPa 0,0 mm 0,0 km/h (0 Bft) W-SW 247 7,9 C 0,0 km/h (0 Bft)
21.08.2015 22:35 10,5 C 10,2 C 84 % 1017,0 hPa 0,0 mm 0,0 km/h (0 Bft) W-SW 247 7,9 C 0,0 km/h (0 Bft)
21.08.2015 22:40 10,3 C 10,0 C 84 % 1017,0 hPa 0,0 mm 0,0 km/h (0 Bft) W 270 7,7 C 0,0 km/h (0 Bft)
21.08.2015 22:45 10,3 C 10,0 C 85 % 1017,0 hPa 0,0 mm 0,0 km/h (0 Bft) W 270 7,9 C 0,0 km/h (0 Bft)
21.08.2015 22:50 10,1 C 9,9 C 85 % 1017,0 hPa 0,0 mm 0,0 km/h (0 Bft) W 270 7,7 C 0,0 km/h (0 Bft)
21.08.2015 22:55 9,9 C 9,7 C 85 % 1016,8 hPa 0,0 mm 0,0 km/h (0 Bft) N-NW 337 7,5 C 0,0 km/h (0 Bft)
21.08.2015 23:00 10,1 C 9,9 C 85 % 1016,8 hPa 0,0 mm 0,0 km/h (0 Bft) N-NW 337 7,7 C 0,0 km/h (0 Bft)
21.08.2015 23:05 10,0 C 9,8 C 85 % 1016,8 hPa 0,0 mm 0,0 km/h (0 Bft) N-NW 337 7,6 C 0,0 km/h (0 Bft)
21.08.2015 23:10 9,9 C 9,7 C 86 % 1016,8 hPa 0,0 mm 0,0 km/h (0 Bft) N-NO 22 7,7 C 0,0 km/h (0 Bft)
21.08.2015 23:15 9,8 C 9,6 C 86 % 1016,7 hPa 0,0 mm 0,0 km/h (0 Bft) N-NO 22 7,6 C 0,0 km/h (0 Bft)
21.08.2015 23:20 9,7 C 9,6 C 86 % 1016,7 hPa 0,0 mm 0,0 km/h (0 Bft) N-NO 22 7,5 C 0,0 km/h (0 Bft)
21.08.2015 23:25 9,7 C 9,5 C 86 % 1016,7 hPa 0,0 mm 0,0 km/h (0 Bft) N-NO 22 7,5 C 0,0 km/h (0 Bft)
21.08.2015 23:30 9,6 C 9,5 C 86 % 1016,7 hPa 0,0 mm 0,0 km/h (0 Bft) N-NO 22 7,4 C 0,0 km/h (0 Bft)
21.08.2015 23:35 9,5 C 9,3 C 86 % 1016,6 hPa 0,0 mm 0,0 km/h (0 Bft) N-NO 22 7,3 C 0,0 km/h (0 Bft)
21.08.2015 23:40 9,6 C 9,4 C 86 % 1016,6 hPa 0,0 mm 0,0 km/h (0 Bft) N-NO 22 7,4 C 0,0 km/h (0 Bft)
21.08.2015 23:45 9,4 C 9,2 C 86 % 1016,6 hPa 0,0 mm 0,0 km/h (0 Bft) N-NO 22 7,2 C 0,0 km/h (0 Bft)
21.08.2015 23:50 9,5 C 9,3 C 87 % 1016,6 hPa 0,0 mm 0,0 km/h (0 Bft) N-NO 22 7,4 C 0,0 km/h (0 Bft)
21.08.2015 23:51 9,6 C 9,3 C 87 % 1016,4 hPa 0,0 mm 0,0 km/h (0 Bft) W 270 7,5 C 0,0 km/h (0 Bft)
21.08.2015 23:53 9,6 C 9,3 C 87 % 1016,4 hPa 0,0 mm 0,0 km/h (0 Bft) W 270 7,5 C 0,0 km/h (0 Bft)
21.08.2015 23:55 9,6 C 9,3 C 87 % 1016,4 hPa 0,0 mm 0,0 km/h (0 Bft) W 270 7,5 C 0,0 km/h (0 Bft)
_ Min-Zeit 04:45 04:45 16:40 23:55 - 23:55 - - 06:00 23:55
Minimum _ 6,5 C 6,4 C 57 % 1016,4 hPa - 0,0 km/h (0 Bft) - - 5,2 C 0,0 km/h (0 Bft)
_ Max-Zeit 15:35 15:30 07:45 11:46 16:50 14:00 - - 11:05 13:50
Maximum _ 20,7 C 26,9 C 94 % 1019,2 hPa 0,7 mm 9,3 km/h
N-NO (2 Bft)
- - 13,3 C 18,4 km/h
N-NW (3 Bft)
Durchschnitt _ 13,1 C 15,4 C 79 % 1017,8 hPa #0,7 mm 1,7 km/h (1 Bft) O-NO - 9,3 C 2,2 km/h (1 Bft)